Location: Newark
(40.2000°N, 15.6833°E)
Time: 03:07:01
(UTC+00:00)

N. Korean satellite - Visible Passes

Search period start: 10 December 2019 00:00
Search period end: 20 December 2019 00:00
Orbit: 456 x 506 km, 97.2° (Epoch: 09 December)

Date Brightness Start Highest point End Pass type
(mag) Time Alt. Az. Time Alt. Az. Time Alt. Az.
10 Dec 6.5 05:03:16 10° N 05:06:45 59° WNW 05:10:10 10° SSW visible
10 Dec 10.1 17:13:25 10° WSW 17:14:48 12° W 17:16:12 10° WNW visible
11 Dec 7.1 04:37:50 10° NNE 04:41:20 58° E 04:44:44 10° S visible
11 Dec 9.3 16:46:10 10° SSW 16:49:12 24° W 16:52:14 10° NW visible
12 Dec 8.8 04:12:50 10° NE 04:15:49 26° E 04:18:44 10° SSE visible
12 Dec 7.7 16:20:05 10° S 16:23:41 50° W 16:27:17 10° NNW visible
13 Dec 9.9 03:48:41 10° ENE 03:50:12 12° E 03:51:42 10° ESE visible
13 Dec 7.1 05:20:32 10° N 05:23:44 34° WNW 05:26:52 10° SW visible
14 Dec 6.3 04:54:52 10° N 04:58:22 78° WNW 05:01:48 10° SSW visible
14 Dec 9.9 17:04:15 10° SW 17:06:22 15° W 17:08:31 10° WNW visible
15 Dec 7.7 04:29:34 10° NNE 04:32:55 43° E 04:36:13 10° S visible
15 Dec 8.8 16:37:32 10° SSW 16:40:49 29° W 16:44:04 10° NW visible
16 Dec 9.2 04:04:43 10° NE 04:07:21 20° E 04:09:58 10° SE visible
16 Dec 7.8 05:38:01 10° NNW 05:40:40 21° WNW 05:43:17 10° WSW visible
16 Dec 7.1 16:11:39 10° S 16:15:19 65° W 16:18:58 10° NNW visible
17 Dec 6.8 05:12:03 10° N 05:15:22 43° WNW 05:18:38 10° SSW visible
18 Dec 6.5 04:46:29 10° NNE 04:49:58 80° ESE 04:53:23 10° S visible
18 Dec 9.7 16:55:21 10° SW 16:57:57 18° W 17:00:32 10° NW visible
19 Dec 8.2 04:21:18 10° NNE 04:24:28 33° E 04:27:36 10° SSE visible
19 Dec 8.3 16:28:58 10° SSW 16:32:23 37° W 16:35:48 10° NNW visible
